User: anonymous   Login
Location: Hiram
(41.3130°N, 81.1440°W)
Time: 13:25:52
(UTC-05:00)
Language:

Iridium 62 - Orbit

View from above orbital plane
View from above orbital plane
View from above satellite
View from above satellite

Ground track
Ground track

The orbit data is extracted from the following two-line orbital elements,

1 25285U 98021A   15025.57233305  .00000103  00000-0  29809-4 0  1014
2 25285 086.3941 229.0494 0001933 103.2537 256.8875 14.34214842879808
Epoch (UTC): 25 January 2015 13:44:09
Eccentricity: 0.0001933
inclination: 86.3941°
perigee height: 776 km
apogee height: 779 km
right ascension of ascending node: 229.0494°
argument of perigee: 103.2537°
revolutions per day: 14.34214842
mean anomaly at epoch: 256.8875°
orbit number at epoch: 87980

The dashed part of the orbit path shows where the satellite is in the earth's shadow,  

DLR